Weather History for Spokane Felts, WA

Change the Weather History Date:

Sunday, June 30, 2013

  Actual Average Record
Temperature  
Mean Temperature 76 °F 66 °F  
Max Temperature 93 °F 80 °F 98 °F (2008)
Min Temperature 58 °F 52 °F 48 °F (1997)
Degree Days  
Heating Degree Days 0 2  
Month to date heating degree days 105 117  
Since 1 June heating degree days 105 118  
Since 1 July heating degree days 5659 6293  
Cooling Degree Days 11 3  
Month to date cooling degree days 57 40  
Year to date cooling degree days 83 47  
Since 1 June cooling degree days 57 40  
Growing Degree Days 24 (Base 50)    
Moisture  
Dew Point 56 °F    
Average Humidity 57    
Maximum Humidity 93    
Minimum Humidity 20    
Precipitation  
Precipitation 0.00 in 0.03 in 0.13 in (2004)
Month to date precipitation 2.80 1.37  
Year to date precipitation 7.96 9.22  
Sea Level Pressure  
Sea Level Pressure 30.02 in    
Wind  
Wind Speed 2 mph (NE)    
Max Wind Speed 7 mph    
Max Gust Speed 9 mph    
Visibility 8 miles    
Events      
T = Trace of Precipitation, MM = Missing Value Source: NWS Daily Summary

Daily Weather History Graph

Daily Weather History Graph

Search for Another Location

Airport:

Trip Planner

Search our weather history database for the weather conditions in past years. The results will help you decide how hot, cold, wet, or windy it might be!

Date:

Astronomy

Jun. 30, 2013 Rise Set
Actual Time 4:54 AM PDT 8:50 PM PDT
Civil Twilight 4:14 AM PDT 9:31 PM PDT
Nautical Twilight 3:18 AM PDT 10:27 PM PDT
Astronomical Twilight 1:50 AM PDT 11:54 PM PDT
Moon 12:17 AM PDT (6/30) 1:51 PM PDT (6/30)
Length of Visible Light 17h 17m
Length of Day
15h 56m
Last Quarter, 44% of the Moon is Illuminated
Jun 30
Last Quarter
Jul 8
New
Jul 15
First Quarter
Jul 22
Full
Jul 29
Last Quarter

Hourly Weather History & Observations

Time (PDT) Temp. Heat Index Dew Point Humidity Pressure Visibility Wind Dir Wind Speed Gust Speed Precip Events Conditions
12:53 AM 62.1 °F - 57.9 °F 86% 30.00 in 10.0 mi Calm Calm - N/A   Clear
1:53 AM 61.0 °F - 57.9 °F 90% 30.01 in 10.0 mi Calm Calm - N/A   Clear
2:53 AM 61.0 °F - 57.9 °F 90% 30.02 in 7.0 mi Calm Calm - N/A   Clear
3:20 AM 60.8 °F - 57.2 °F 88% 30.05 in 2.0 mi Calm Calm - N/A   Clear
3:28 AM 60.8 °F - 57.2 °F 88% 30.05 in 8.0 mi Calm Calm - N/A   Clear
3:53 AM 59.0 °F - 55.9 °F 90% 30.03 in 2.5 mi Calm Calm - N/A   Clear
4:18 AM 59.0 °F - 55.4 °F 88% 30.06 in 8.0 mi Calm Calm - N/A   Clear
4:44 AM 59.0 °F - 55.4 °F 88% 30.06 in 1.8 mi Calm Calm - N/A   Clear
4:46 AM 59.0 °F - 55.4 °F 88% 30.06 in 0.8 mi ENE 3.5 mph - N/A   Mist
4:53 AM 57.9 °F - 55.0 °F 90% 30.03 in 0.8 mi Calm Calm - N/A   Mist
4:55 AM 57.2 °F - 55.4 °F 94% 30.07 in 1.8 mi ESE 3.5 mph - N/A   Clear
5:02 AM 59.0 °F - 55.4 °F 88% 30.07 in 10.0 mi Calm Calm - N/A   Clear
5:53 AM 61.0 °F - 57.9 °F 90% 30.04 in 10.0 mi Calm Calm - N/A   Clear
6:53 AM 64.9 °F - 57.9 °F 78% 30.06 in 10.0 mi Calm Calm - N/A   Clear
7:53 AM 69.1 °F - 57.9 °F 68% 30.06 in 10.0 mi Calm Calm - N/A   Clear
8:53 AM 71.1 °F - 60.1 °F 68% 30.06 in 10.0 mi Calm Calm - N/A   Clear
9:53 AM 75.9 °F - 60.1 °F 58% 30.05 in 10.0 mi Calm Calm - N/A   Clear
10:53 AM 81.0 °F 81.6 °F 60.1 °F 49% 30.04 in 10.0 mi Calm Calm - N/A   Clear
11:53 AM 82.9 °F 83.2 °F 60.1 °F 46% 30.04 in 10.0 mi Calm Calm - N/A   Clear
12:53 PM 84.9 °F 84.8 °F 60.1 °F 43% 30.03 in 10.0 mi Variable 3.5 mph - N/A   Clear
1:53 PM 88.0 °F 86.9 °F 57.9 °F 36% 30.01 in 10.0 mi Calm Calm - N/A   Clear
2:53 PM 90.0 °F - 51.1 °F 26% 30.00 in 10.0 mi NNE 3.5 mph - N/A   Partly Cloudy
3:53 PM 90.0 °F - 51.1 °F 26% 29.99 in 10.0 mi SW 4.6 mph - N/A   Clear
4:53 PM 91.9 °F - 48.0 °F 22% 29.98 in 10.0 mi Variable 4.6 mph - N/A   Partly Cloudy
5:53 PM 91.9 °F - 44.1 °F 19% 29.96 in 10.0 mi Calm Calm - N/A   Clear
6:53 PM 89.1 °F - 48.0 °F 24% 29.96 in 10.0 mi Calm Calm - N/A   Clear
7:53 PM 81.0 °F 80.7 °F 55.0 °F 41% 29.95 in 10.0 mi North 3.5 mph - N/A   Clear
8:53 PM 77.0 °F - 57.0 °F 50% 29.95 in 10.0 mi North 4.6 mph - N/A   Clear
9:53 PM 78.1 °F - 54.0 °F 43% 29.96 in 10.0 mi East 4.6 mph - N/A   Clear
10:53 PM 71.1 °F - 54.0 °F 55% 29.96 in 10.0 mi NNE 3.5 mph - N/A   Clear
11:53 PM 66.9 °F - 57.0 °F 70% 29.98 in 10.0 mi NE 3.5 mph - N/A   Clear